Time,TemperatureF,DewpointF,PressureIn,WindDirection,WindDirectionDegrees,WindSpeedMPH,WindSpeedGustMPH,Humidity,HourlyPrecipIn,Conditions,Clouds,dailyrainin,SoftwareType,DateUTC
2013-05-24 00:00:00,57.6,57.6,29.84,SSW,200,8.0,9.0,100,0.00,,,0.00,WeatherCatV1.01B143,2013-05-24 04:00:00,
2013-05-24 00:05:00,57.5,57.5,29.84,SSW,200,8.0,10.0,100,0.00,,,0.00,WeatherCatV1.01B143,2013-05-24 04:05:00,
2013-05-24 00:10:00,57.6,57.6,29.83,SSW,200,9.0,12.0,100,0.00,,,0.00,WeatherCatV1.01B143,2013-05-24 04:10:00,
2013-05-24 00:15:00,57.8,57.8,29.83,SSW,198,11.0,13.0,100,0.00,,,0.00,WeatherCatV1.01B143,2013-05-24 04:15:00,
2013-05-24 00:20:00,58.1,58.1,29.83,SSW,195,13.0,18.0,100,0.00,,,0.00,WeatherCatV1.01B143,2013-05-24 04:20:00,
2013-05-24 00:25:00,58.0,58.0,29.82,South,190,14.0,15.0,100,0.00,,,0.00,WeatherCatV1.01B143,2013-05-24 04:25:00,
2013-05-24 00:30:00,57.9,57.9,29.82,South,190,14.0,14.0,100,0.00,,,0.00,WeatherCatV1.01B143,2013-05-24 04:30:00,
2013-05-24 00:35:00,57.9,57.9,29.81,South,190,12.0,14.0,100,0.00,,,0.00,WeatherCatV1.01B143,2013-05-24 04:35:00,
2013-05-24 00:40:00,57.7,57.7,29.81,SSW,192,11.0,11.0,100,0.00,,,0.00,WeatherCatV1.01B143,2013-05-24 04:40:00,
2013-05-24 00:45:00,57.4,57.4,29.81,South,188,10.0,11.0,100,0.00,,,0.00,WeatherCatV1.01B143,2013-05-24 04:45:00,
2013-05-24 00:50:00,57.4,57.4,29.81,South,183,9.0,10.0,100,0.00,,,0.00,WeatherCatV1.01B143,2013-05-24 04:50:00,
2013-05-24 00:55:00,57.5,57.5,29.81,South,184,9.0,11.0,100,0.00,,,0.00,WeatherCatV1.01B143,2013-05-24 04:55:00,
2013-05-24 01:00:00,57.4,57.4,29.80,South,187,9.0,10.0,100,0.00,,,0.00,WeatherCatV1.01B143,2013-05-24 05:00:00,
2013-05-24 01:05:00,57.4,57.4,29.80,South,186,8.0,10.0,100,0.00,,,0.00,WeatherCatV1.01B143,2013-05-24 05:05:00,
2013-05-24 01:10:00,57.3,57.3,29.80,South,177,7.0,8.0,100,0.00,,,0.00,WeatherCatV1.01B143,2013-05-24 05:10:00,
2013-05-24 01:15:00,57.5,57.5,29.80,South,175,6.0,9.0,100,0.00,,,0.00,WeatherCatV1.01B143,2013-05-24 05:15:00,
2013-05-24 01:20:00,57.5,57.5,29.80,South,178,7.0,9.0,100,0.00,,,0.00,WeatherCatV1.01B143,2013-05-24 05:20:00,
2013-05-24 01:25:00,57.3,57.3,29.79,South,178,7.0,8.0,100,0.00,,,0.00,WeatherCatV1.01B143,2013-05-24 05:25:00,
2013-05-24 01:30:00,57.4,57.4,29.79,South,177,7.0,13.0,100,0.00,,,0.00,WeatherCatV1.01B143,2013-05-24 05:30:00,
2013-05-24 01:35:00,57.8,57.8,29.78,South,177,8.0,10.0,100,0.00,,,0.00,WeatherCatV1.01B143,2013-05-24 05:35:00,
2013-05-24 01:40:00,58.0,58.0,29.78,South,181,8.0,10.0,100,0.00,,,0.00,WeatherCatV1.01B143,2013-05-24 05:40:00,
2013-05-24 01:45:00,58.0,58.0,29.78,South,180,8.0,9.0,100,0.00,,,0.00,WeatherCatV1.01B143,2013-05-24 05:45:00,
2013-05-24 01:50:00,58.1,58.1,29.78,South,183,8.0,13.0,100,0.00,,,0.00,WeatherCatV1.01B143,2013-05-24 05:50:00,
2013-05-24 01:55:00,58.4,58.4,29.77,South,183,10.0,13.0,100,0.00,,,0.00,WeatherCatV1.01B143,2013-05-24 05:55:00,
2013-05-24 02:00:00,58.1,58.1,29.77,South,181,10.0,10.0,100,0.00,,,0.00,WeatherCatV1.01B143,2013-05-24 06:00:00,
2013-05-24 02:05:00,58.2,58.2,29.77,South,180,8.0,11.0,100,0.00,,,0.00,WeatherCatV1.01B143,2013-05-24 06:05:00,
2013-05-24 02:10:00,59.5,59.5,29.76,South,184,9.0,13.0,100,0.00,,,0.00,WeatherCatV1.01B143,2013-05-24 06:10:00,
2013-05-24 02:15:00,59.9,59.9,29.76,South,188,11.0,16.0,100,0.00,,,0.00,WeatherCatV1.01B143,2013-05-24 06:15:00,
2013-05-24 02:20:00,60.1,60.1,29.75,SSW,196,12.0,16.0,100,0.00,,,0.00,WeatherCatV1.01B143,2013-05-24 06:20:00,
2013-05-24 02:25:00,59.9,59.9,29.75,SSW,197,14.0,18.0,100,0.00,,,0.00,WeatherCatV1.01B143,2013-05-24 06:25:00,
2013-05-24 02:30:00,59.6,59.6,29.75,South,189,14.0,14.0,100,0.00,,,0.00,WeatherCatV1.01B143,2013-05-24 06:30:00,
2013-05-24 02:35:00,59.2,59.2,29.74,South,182,13.0,13.0,100,0.00,,,0.00,WeatherCatV1.01B143,2013-05-24 06:35:00,
2013-05-24 02:40:00,58.8,58.8,29.74,South,183,10.0,10.0,100,0.00,,,0.00,WeatherCatV1.01B143,2013-05-24 06:40:00,
2013-05-24 02:45:00,58.4,58.4,29.73,South,185,7.0,7.0,100,0.00,,,0.00,WeatherCatV1.01B143,2013-05-24 06:45:00,
2013-05-24 02:50:00,58.0,58.0,29.73,South,175,6.0,7.0,100,0.00,,,0.00,WeatherCatV1.01B143,2013-05-24 06:50:00,
2013-05-24 02:55:00,58.4,58.4,29.72,South,176,5.0,7.0,100,0.00,,,0.00,WeatherCatV1.01B143,2013-05-24 06:55:00,
2013-05-24 03:00:00,58.3,58.3,29.72,South,177,6.0,7.0,100,0.00,,,0.00,WeatherCatV1.01B143,2013-05-24 07:00:00,
2013-05-24 03:05:00,57.9,57.9,29.72,SSE,168,6.0,8.0,100,0.00,,,0.00,WeatherCatV1.01B143,2013-05-24 07:05:00,
2013-05-24 03:10:00,57.7,57.7,29.72,SSE,166,5.0,7.0,100,0.00,,,0.00,WeatherCatV1.01B143,2013-05-24 07:10:00,
2013-05-24 03:15:00,57.7,57.7,29.71,SSE,165,5.0,8.0,100,0.00,,,0.00,WeatherCatV1.01B143,2013-05-24 07:15:00,
2013-05-24 03:20:00,57.7,57.7,29.71,SSE,165,5.0,6.0,100,0.00,,,0.00,WeatherCatV1.01B143,2013-05-24 07:20:00,
2013-05-24 03:25:00,57.6,57.6,29.70,SSE,166,5.0,6.0,100,0.00,,,0.00,WeatherCatV1.01B143,2013-05-24 07:25:00,
2013-05-24 03:30:00,57.7,57.7,29.70,South,173,5.0,6.0,100,0.00,,,0.00,WeatherCatV1.01B143,2013-05-24 07:30:00,
2013-05-24 03:35:00,57.5,57.5,29.69,South,182,5.0,5.0,100,0.00,,,0.00,WeatherCatV1.01B143,2013-05-24 07:35:00,
2013-05-24 03:40:00,57.5,57.5,29.69,South,185,5.0,6.0,100,0.00,,,0.00,WeatherCatV1.01B143,2013-05-24 07:40:00,
2013-05-24 03:45:00,56.9,56.9,29.68,SSW,197,3.0,3.0,100,0.00,,,0.00,WeatherCatV1.01B143,2013-05-24 07:45:00,
2013-05-24 03:50:00,56.9,56.9,29.68,SW,214,2.0,3.0,100,0.00,,,0.00,WeatherCatV1.01B143,2013-05-24 07:50:00,
2013-05-24 03:55:00,56.8,56.8,29.68,WSW,247,1.0,2.0,100,0.00,,,0.00,WeatherCatV1.01B143,2013-05-24 07:55:00,
2013-05-24 04:00:00,57.0,57.0,29.68,West,273,1.0,4.0,100,0.00,,,0.00,WeatherCatV1.01B143,2013-05-24 08:00:00,
2013-05-24 04:05:00,57.0,57.0,29.68,West,271,2.0,5.0,100,0.00,,,0.00,WeatherCatV1.01B143,2013-05-24 08:05:00,
2013-05-24 04:10:00,57.1,57.1,29.68,West,273,3.0,7.0,100,0.00,,,0.00,WeatherCatV1.01B143,2013-05-24 08:10:00,
2013-05-24 04:15:00,57.1,57.1,29.68,West,272,4.0,7.0,100,0.00,,,0.00,WeatherCatV1.01B143,2013-05-24 08:15:00,
2013-05-24 04:20:00,57.1,57.1,29.68,West,260,4.0,4.0,100,0.00,,,0.00,WeatherCatV1.01B143,2013-05-24 08:20:00,
2013-05-24 04:25:00,56.9,56.9,29.68,West,260,3.0,3.0,100,0.00,,,0.00,WeatherCatV1.01B143,2013-05-24 08:25:00,
2013-05-24 04:30:00,56.9,56.9,29.68,West,262,3.0,5.0,100,0.00,,,0.00,WeatherCatV1.01B143,2013-05-24 08:30:00,
2013-05-24 04:35:00,56.9,56.9,29.68,West,262,3.0,6.0,100,0.00,,,0.00,WeatherCatV1.01B143,2013-05-24 08:35:00,
2013-05-24 04:40:00,56.7,56.7,29.68,WSW,247,3.0,8.0,100,0.00,,,0.00,WeatherCatV1.01B143,2013-05-24 08:40:00,
2013-05-24 04:45:00,57.1,57.1,29.68,SW,226,6.0,11.0,100,0.00,,,0.00,WeatherCatV1.01B143,2013-05-24 08:45:00,
2013-05-24 04:50:00,57.4,57.4,29.68,SW,225,8.0,14.0,100,0.00,,,0.00,WeatherCatV1.01B143,2013-05-24 08:50:00,
2013-05-24 04:55:00,57.4,57.4,29.68,SW,226,10.0,13.0,100,0.00,,,0.00,WeatherCatV1.01B143,2013-05-24 08:55:00,
2013-05-24 05:00:00,57.1,57.1,29.68,SW,234,10.0,12.0,100,0.00,,,0.00,WeatherCatV1.01B143,2013-05-24 09:00:00,
2013-05-24 05:05:00,56.8,56.8,29.69,WSW,245,9.0,13.0,100,0.00,,,0.00,WeatherCatV1.01B143,2013-05-24 09:05:00,
2013-05-24 05:10:00,56.7,56.7,29.68,WSW,250,7.0,10.0,100,0.00,,,0.00,WeatherCatV1.01B143,2013-05-24 09:10:00,
2013-05-24 05:15:00,56.7,56.7,29.68,WSW,251,7.0,8.0,100,0.00,,,0.00,WeatherCatV1.01B143,2013-05-24 09:15:00,
2013-05-24 05:20:00,56.7,56.7,29.68,WSW,238,6.0,8.0,100,0.00,,,0.00,WeatherCatV1.01B143,2013-05-24 09:20:00,
2013-05-24 05:25:00,56.5,56.5,29.68,SSW,210,5.0,8.0,100,0.00,,,0.00,WeatherCatV1.01B143,2013-05-24 09:25:00,
2013-05-24 05:30:00,56.5,56.5,29.68,SSW,205,7.0,8.0,100,0.00,,,0.00,WeatherCatV1.01B143,2013-05-24 09:30:00,
2013-05-24 05:35:00,56.6,56.6,29.68,SW,214,7.0,9.0,100,0.00,,,0.00,WeatherCatV1.01B143,2013-05-24 09:35:00,
2013-05-24 05:40:00,56.8,56.8,29.68,SW,216,6.0,10.0,100,0.00,,,0.00,WeatherCatV1.01B143,2013-05-24 09:40:00,
2013-05-24 05:45:00,56.8,56.8,29.68,SW,219,7.0,8.0,100,0.00,,,0.00,WeatherCatV1.01B143,2013-05-24 09:45:00,
2013-05-24 05:50:00,56.7,56.7,29.68,SW,221,6.0,8.0,100,0.00,,,0.00,WeatherCatV1.01B143,2013-05-24 09:50:00,
2013-05-24 05:55:00,56.6,56.6,29.69,SW,220,6.0,9.0,100,0.00,,,0.00,WeatherCatV1.01B143,2013-05-24 09:55:00,
2013-05-24 06:00:00,56.7,56.7,29.69,SW,225,6.0,7.0,100,0.00,,,0.00,WeatherCatV1.01B143,2013-05-24 10:00:00,
2013-05-24 06:05:00,56.7,56.7,29.69,SW,221,6.0,8.0,100,0.00,,,0.00,WeatherCatV1.01B143,2013-05-24 10:05:00,
2013-05-24 06:10:00,56.6,56.6,29.69,SW,220,6.0,7.0,100,0.00,,,0.00,WeatherCatV1.01B143,2013-05-24 10:10:00,
2013-05-24 06:15:00,56.6,56.6,29.69,SW,218,6.0,8.0,100,0.00,,,0.00,WeatherCatV1.01B143,2013-05-24 10:15:00,
2013-05-24 06:20:00,56.4,56.4,29.69,SSW,209,6.0,7.0,100,0.00,,,0.00,WeatherCatV1.01B143,2013-05-24 10:20:00,
2013-05-24 06:25:00,56.1,56.1,29.68,SSW,199,6.0,6.0,100,0.00,,,0.00,WeatherCatV1.01B143,2013-05-24 10:25:00,
2013-05-24 06:30:00,56.1,56.1,29.69,SSW,199,6.0,8.0,100,0.00,,,0.00,WeatherCatV1.01B143,2013-05-24 10:30:00,
2013-05-24 06:35:00,56.0,56.0,29.69,SSW,205,6.0,10.0,100,0.00,,,0.00,WeatherCatV1.01B143,2013-05-24 10:35:00,
2013-05-24 06:40:00,55.9,55.9,29.70,SSW,206,8.0,9.0,100,0.00,,,0.00,WeatherCatV1.01B143,2013-05-24 10:40:00,
2013-05-24 06:45:00,56.0,56.0,29.70,SSW,209,8.0,10.0,100,0.00,,,0.00,WeatherCatV1.01B143,2013-05-24 10:45:00,
2013-05-24 06:50:00,56.1,56.1,29.70,SW,228,7.0,8.0,100,0.00,,,0.00,WeatherCatV1.01B143,2013-05-24 10:50:00,
2013-05-24 06:55:00,56.6,56.6,29.70,SW,234,5.0,7.0,100,0.00,,,0.00,WeatherCatV1.01B143,2013-05-24 10:55:00,
2013-05-24 07:00:00,56.5,56.5,29.70,WSW,237,5.0,7.0,100,0.00,,,0.00,WeatherCatV1.01B143,2013-05-24 11:00:00,
2013-05-24 07:05:00,56.6,56.6,29.70,SW,227,5.0,7.0,100,0.00,,,0.00,WeatherCatV1.01B143,2013-05-24 11:05:00,
2013-05-24 07:10:00,56.3,56.3,29.70,SSW,195,5.0,6.0,100,0.00,,,0.00,WeatherCatV1.01B143,2013-05-24 11:10:00,
2013-05-24 07:15:00,56.5,56.5,29.69,SSW,194,5.0,6.0,100,0.00,,,0.00,WeatherCatV1.01B143,2013-05-24 11:15:00,
2013-05-24 07:20:00,56.3,56.3,29.70,SSW,198,5.0,5.0,100,0.00,,,0.00,WeatherCatV1.01B143,2013-05-24 11:20:00,
2013-05-24 07:25:00,56.2,56.2,29.70,SSW,199,4.0,4.0,100,0.00,,,0.00,WeatherCatV1.01B143,2013-05-24 11:25:00,
2013-05-24 07:30:00,55.9,55.9,29.70,SSW,204,3.0,3.0,100,0.00,,,0.00,WeatherCatV1.01B143,2013-05-24 11:30:00,
2013-05-24 07:35:00,55.9,55.9,29.71,SSW,213,2.0,3.0,100,0.00,,,0.00,WeatherCatV1.01B143,2013-05-24 11:35:00,
2013-05-24 07:40:00,55.6,55.6,29.72,SW,214,2.0,3.0,100,0.00,,,0.00,WeatherCatV1.01B143,2013-05-24 11:40:00,
2013-05-24 07:45:00,55.3,55.3,29.72,SSW,201,3.0,4.0,100,0.00,,,0.00,WeatherCatV1.01B143,2013-05-24 11:45:00,
2013-05-24 07:50:00,55.3,55.3,29.73,SW,223,3.0,5.0,100,0.00,,,0.00,WeatherCatV1.01B143,2013-05-24 11:50:00,
2013-05-24 07:55:00,55.3,55.3,29.72,SW,235,2.0,3.0,100,0.00,,,0.00,WeatherCatV1.01B143,2013-05-24 11:55:00,
2013-05-24 08:00:00,55.3,55.3,29.73,WSW,249,3.0,5.0,100,0.00,,,0.00,WeatherCatV1.01B143,2013-05-24 12:00:00,
2013-05-24 08:05:00,55.3,55.3,29.73,WSW,249,3.0,5.0,100,0.00,,,0.00,WeatherCatV1.01B143,2013-05-24 12:05:00,
2013-05-24 08:10:00,55.3,55.3,29.73,SW,222,1.0,3.0,100,0.00,,,0.00,WeatherCatV1.01B143,2013-05-24 12:10:00,
2013-05-24 08:15:00,55.2,55.2,29.73,SW,215,2.0,4.0,100,0.00,,,0.00,WeatherCatV1.01B143,2013-05-24 12:15:00,
2013-05-24 08:20:00,55.1,55.1,29.73,SW,214,2.0,3.0,100,0.00,,,0.00,WeatherCatV1.01B143,2013-05-24 12:20:00,
2013-05-24 08:25:00,55.1,55.1,29.73,SW,227,1.0,3.0,100,0.00,,,0.00,WeatherCatV1.01B143,2013-05-24 12:25:00,
2013-05-24 08:30:00,55.1,55.1,29.73,WSW,237,1.0,4.0,100,0.00,,,0.00,WeatherCatV1.01B143,2013-05-24 12:30:00,
2013-05-24 08:35:00,55.3,55.3,29.73,WSW,249,1.0,2.0,100,0.00,,,0.00,WeatherCatV1.01B143,2013-05-24 12:35:00,
2013-05-24 08:40:00,55.4,55.4,29.74,WSW,256,1.0,1.0,100,0.00,,,0.00,WeatherCatV1.01B143,2013-05-24 12:40:00,
2013-05-24 08:45:00,55.4,55.4,29.74,West,260,1.0,3.0,100,0.00,,,0.00,WeatherCatV1.01B143,2013-05-24 12:45:00,
2013-05-24 08:50:00,55.6,55.6,29.74,West,262,1.0,2.0,100,0.00,,,0.00,WeatherCatV1.01B143,2013-05-24 12:50:00,
2013-05-24 08:55:00,55.7,55.7,29.74,West,260,1.0,1.0,100,0.00,,,0.00,WeatherCatV1.01B143,2013-05-24 12:55:00,
2013-05-24 09:00:00,55.8,55.8,29.74,WSW,246,1.0,1.0,100,0.00,,,0.00,WeatherCatV1.01B143,2013-05-24 13:00:00,
2013-05-24 09:05:00,55.8,55.8,29.74,West,261,0.0,1.0,100,0.00,,,0.00,WeatherCatV1.01B143,2013-05-24 13:05:00,
2013-05-24 09:10:00,55.9,55.9,29.74,WSW,255,1.0,2.0,100,0.00,,,0.00,WeatherCatV1.01B143,2013-05-24 13:10:00,
2013-05-24 09:15:00,55.8,55.8,29.74,WSW,247,1.0,1.0,100,0.00,,,0.00,WeatherCatV1.01B143,2013-05-24 13:15:00,
2013-05-24 09:20:00,55.9,55.9,29.74,West,261,1.0,4.0,100,0.00,,,0.00,WeatherCatV1.01B143,2013-05-24 13:20:00,
2013-05-24 09:25:00,55.8,55.8,29.74,WSW,253,1.0,3.0,100,0.00,,,0.00,WeatherCatV1.01B143,2013-05-24 13:25:00,
2013-05-24 09:30:00,55.7,55.7,29.74,WSW,255,2.0,3.0,100,0.00,,,0.00,WeatherCatV1.01B143,2013-05-24 13:30:00,
2013-05-24 09:35:00,55.8,55.8,29.74,WSW,251,1.0,4.0,100,0.00,,,0.00,WeatherCatV1.01B143,2013-05-24 13:35:00,
2013-05-24 09:40:00,55.8,55.8,29.74,WSW,253,1.0,6.0,100,0.00,,,0.00,WeatherCatV1.01B143,2013-05-24 13:40:00,
2013-05-24 09:45:00,55.8,55.8,29.74,WSW,254,3.0,6.0,100,0.00,,,0.00,WeatherCatV1.01B143,2013-05-24 13:45:00,
2013-05-24 09:50:00,55.7,55.7,29.75,WSW,254,4.0,7.0,100,0.00,,,0.00,WeatherCatV1.01B143,2013-05-24 13:50:00,
2013-05-24 09:55:00,55.7,55.7,29.75,WSW,245,4.0,4.0,100,0.00,,,0.00,WeatherCatV1.01B143,2013-05-24 13:55:00,
2013-05-24 10:00:00,55.6,55.6,29.74,SSW,205,2.0,3.0,100,0.00,,,0.00,WeatherCatV1.01B143,2013-05-24 14:00:00,
2013-05-24 10:05:00,55.4,55.4,29.74,SSW,202,2.0,2.0,100,0.00,,,0.00,WeatherCatV1.01B143,2013-05-24 14:05:00,
2013-05-24 10:10:00,55.3,55.3,29.74,SSW,202,1.0,3.0,100,0.00,,,0.00,WeatherCatV1.01B143,2013-05-24 14:10:00,
2013-05-24 10:15:00,55.3,55.3,29.74,SSW,204,1.0,4.0,100,0.00,,,0.00,WeatherCatV1.01B143,2013-05-24 14:15:00,
2013-05-24 10:20:00,55.3,55.3,29.74,SSW,201,3.0,5.0,100,0.00,,,0.00,WeatherCatV1.01B143,2013-05-24 14:20:00,
2013-05-24 10:25:00,55.3,55.3,29.74,SSW,208,4.0,7.0,100,0.00,,,0.00,WeatherCatV1.01B143,2013-05-24 14:25:00,
2013-05-24 10:30:00,55.3,55.3,29.74,SW,217,4.0,6.0,100,0.00,,,0.00,WeatherCatV1.01B143,2013-05-24 14:30:00,
2013-05-24 10:35:00,55.3,55.3,29.74,SW,222,5.0,8.0,100,0.00,,,0.00,WeatherCatV1.01B143,2013-05-24 14:35:00,
2013-05-24 10:40:00,55.3,55.3,29.74,WSW,243,4.0,8.0,100,0.00,,,0.00,WeatherCatV1.01B143,2013-05-24 14:40:00,
2013-05-24 10:45:00,55.6,55.6,29.73,WNW,285,4.0,4.0,100,0.00,,,0.00,WeatherCatV1.01B143,2013-05-24 14:45:00,
2013-05-24 10:50:00,55.5,55.5,29.73,WNW,294,3.0,3.0,100,0.00,,,0.00,WeatherCatV1.01B143,2013-05-24 14:50:00,
2013-05-24 10:55:00,55.6,55.6,29.73,WNW,288,2.0,4.0,100,0.00,,,0.00,WeatherCatV1.01B143,2013-05-24 14:55:00,
2013-05-24 11:00:00,55.6,55.6,29.73,WNW,286,2.0,3.0,100,0.00,,,0.00,WeatherCatV1.01B143,2013-05-24 15:00:00,
2013-05-24 11:05:00,55.6,55.6,29.73,West,281,2.0,2.0,100,0.00,,,0.00,WeatherCatV1.01B143,2013-05-24 15:05:00,
2013-05-24 11:10:00,55.8,55.8,29.73,WNW,288,1.0,2.0,100,0.00,,,0.00,WeatherCatV1.01B143,2013-05-24 15:10:00,
2013-05-24 11:15:00,56.0,56.0,29.73,WNW,283,1.0,1.0,100,0.00,,,0.00,WeatherCatV1.01B143,2013-05-24 15:15:00,
2013-05-24 11:20:00,56.0,56.0,29.73,WNW,287,1.0,4.0,100,0.00,,,0.00,WeatherCatV1.01B143,2013-05-24 15:20:00,
2013-05-24 11:25:00,56.2,56.2,29.73,WNW,287,2.0,4.0,100,0.00,,,0.00,WeatherCatV1.01B143,2013-05-24 15:25:00,
2013-05-24 11:30:00,56.1,56.1,29.74,WNW,286,3.0,5.0,100,0.00,,,0.00,WeatherCatV1.01B143,2013-05-24 15:30:00,
2013-05-24 11:35:00,56.2,56.2,29.74,WNW,283,4.0,4.0,100,0.00,,,0.00,WeatherCatV1.01B143,2013-05-24 15:35:00,
2013-05-24 11:40:00,55.8,55.8,29.74,WSW,257,2.0,3.0,100,0.00,,,0.00,WeatherCatV1.01B143,2013-05-24 15:40:00,
2013-05-24 11:45:00,55.7,55.7,29.74,WSW,253,1.0,0.0,100,0.00,,,0.00,WeatherCatV1.01B143,2013-05-24 15:45:00,
2013-05-24 11:50:00,55.8,55.8,29.73,West,261,0.0,1.0,100,0.00,,,0.00,WeatherCatV1.01B143,2013-05-24 15:50:00,
2013-05-24 11:55:00,55.7,55.7,29.73,WSW,258,1.0,1.0,100,0.00,,,0.00,WeatherCatV1.01B143,2013-05-24 15:55:00,
2013-05-24 12:00:00,55.8,55.8,29.73,West,259,1.0,2.0,100,0.00,,,0.00,WeatherCatV1.01B143,2013-05-24 16:00:00,
2013-05-24 12:05:00,55.9,55.9,29.73,West,260,1.0,3.0,100,0.00,,,0.00,WeatherCatV1.01B143,2013-05-24 16:05:00,
2013-05-24 12:10:00,56.3,56.3,29.73,West,266,2.0,5.0,100,0.00,,,0.00,WeatherCatV1.01B143,2013-05-24 16:10:00,
2013-05-24 12:15:00,56.5,56.5,29.74,West,267,2.0,5.0,100,0.00,,,0.00,WeatherCatV1.01B143,2013-05-24 16:15:00,
2013-05-24 12:20:00,56.3,56.3,29.74,West,265,3.0,6.0,100,0.00,,,0.00,WeatherCatV1.01B143,2013-05-24 16:20:00,
2013-05-24 12:25:00,56.3,56.3,29.74,West,267,4.0,4.0,100,0.00,,,0.00,WeatherCatV1.01B143,2013-05-24 16:25:00,
2013-05-24 12:30:00,55.8,55.8,29.73,West,270,1.0,4.0,100,0.00,,,0.00,WeatherCatV1.01B143,2013-05-24 16:30:00,
2013-05-24 12:35:00,56.2,56.2,29.73,West,270,2.0,6.0,100,0.00,,,0.00,WeatherCatV1.01B143,2013-05-24 16:35:00,
2013-05-24 12:40:00,56.2,56.2,29.73,West,270,2.0,6.0,100,0.00,,,0.00,WeatherCatV1.01B143,2013-05-24 16:40:00,
2013-05-24 12:45:00,56.2,56.2,29.73,West,270,2.0,6.0,100,0.00,,,0.00,WeatherCatV1.01B143,2013-05-24 16:45:00,
2013-05-24 12:50:00,56.2,56.2,29.73,West,270,2.0,6.0,100,0.00,,,0.00,WeatherCatV1.01B143,2013-05-24 16:50:00,
2013-05-24 12:55:00,56.2,56.2,29.73,West,270,2.0,6.0,100,0.00,,,0.00,WeatherCatV1.01B143,2013-05-24 16:55:00,
2013-05-24 13:00:00,56.2,56.2,29.73,West,270,2.0,6.0,100,0.00,,,0.00,WeatherCatV1.01B143,2013-05-24 17:00:00,
2013-05-24 13:05:00,56.0,56.0,29.74,West,270,1.0,4.0,100,0.00,,,0.00,WeatherCatV1.01B143,2013-05-24 17:05:00,
2013-05-24 13:10:00,56.0,56.0,29.74,West,270,1.0,4.0,100,0.00,,,0.00,WeatherCatV1.01B143,2013-05-24 17:10:00,
2013-05-24 13:15:00,56.0,56.0,29.74,West,270,1.0,4.0,100,0.00,,,0.00,WeatherCatV1.01B143,2013-05-24 17:15:00,
2013-05-24 13:20:00,56.0,56.0,29.74,West,270,1.0,4.0,100,0.00,,,0.00,WeatherCatV1.01B143,2013-05-24 17:20:00,
2013-05-24 13:25:00,56.0,56.0,29.74,West,270,1.0,4.0,100,0.00,,,0.00,WeatherCatV1.01B143,2013-05-24 17:25:00,
2013-05-24 13:30:00,56.0,56.0,29.74,West,270,1.0,4.0,100,0.00,,,0.00,WeatherCatV1.01B143,2013-05-24 17:30:00,
2013-05-24 13:35:00,56.1,56.1,29.73,SSW,202,0.0,1.0,100,0.00,,,0.00,WeatherCatV1.01B143,2013-05-24 17:35:00,
2013-05-24 13:40:00,56.1,56.1,29.73,SSW,202,0.0,1.0,100,0.00,,,0.00,WeatherCatV1.01B143,2013-05-24 17:40:00,
2013-05-24 13:45:00,56.1,56.1,29.73,SSW,202,0.0,1.0,100,0.00,,,0.00,WeatherCatV1.01B143,2013-05-24 17:45:00,
2013-05-24 13:50:00,56.1,56.1,29.73,SSW,202,0.0,1.0,100,0.00,,,0.00,WeatherCatV1.01B143,2013-05-24 17:50:00,
2013-05-24 13:55:00,56.1,56.1,29.73,SSW,202,0.0,1.0,100,0.00,,,0.00,WeatherCatV1.01B143,2013-05-24 17:55:00,
2013-05-24 14:00:00,56.1,56.1,29.73,SSW,202,0.0,1.0,100,0.00,,,0.00,WeatherCatV1.01B143,2013-05-24 18:00:00,
2013-05-24 14:05:00,56.9,56.9,29.72,West,270,1.0,3.0,100,0.00,,,0.00,WeatherCatV1.01B143,2013-05-24 18:05:00,
2013-05-24 14:10:00,56.9,56.9,29.72,West,270,1.0,3.0,100,0.00,,,0.00,WeatherCatV1.01B143,2013-05-24 18:10:00,
2013-05-24 14:15:00,56.9,56.9,29.72,West,270,1.0,3.0,100,0.00,,,0.00,WeatherCatV1.01B143,2013-05-24 18:15:00,
2013-05-24 14:20:00,56.9,56.9,29.72,West,270,1.0,3.0,100,0.00,,,0.00,WeatherCatV1.01B143,2013-05-24 18:20:00,
2013-05-24 14:25:00,56.9,56.9,29.72,West,270,1.0,3.0,100,0.00,,,0.00,WeatherCatV1.01B143,2013-05-24 18:25:00,
2013-05-24 14:30:00,56.9,56.9,29.72,West,270,1.0,3.0,100,0.00,,,0.00,WeatherCatV1.01B143,2013-05-24 18:30:00,
2013-05-24 14:35:00,57.1,57.1,29.72,WSW,248,0.0,2.0,100,0.00,,,0.00,WeatherCatV1.01B143,2013-05-24 18:35:00,
2013-05-24 14:40:00,57.1,57.1,29.72,WSW,248,0.0,2.0,100,0.00,,,0.00,WeatherCatV1.01B143,2013-05-24 18:40:00,
2013-05-24 14:45:00,57.1,57.1,29.72,WSW,248,0.0,2.0,100,0.00,,,0.00,WeatherCatV1.01B143,2013-05-24 18:45:00,
2013-05-24 14:50:00,57.1,57.1,29.72,WSW,248,0.0,2.0,100,0.00,,,0.00,WeatherCatV1.01B143,2013-05-24 18:50:00,
2013-05-24 14:55:00,57.1,57.1,29.72,WSW,248,0.0,2.0,100,0.00,,,0.00,WeatherCatV1.01B143,2013-05-24 18:55:00,
2013-05-24 15:00:00,57.1,57.1,29.72,WSW,248,0.0,2.0,100,0.00,,,0.00,WeatherCatV1.01B143,2013-05-24 19:00:00,
2013-05-24 15:05:00,58.8,58.5,29.71,SW,225,0.0,1.0,99,0.00,,,0.00,WeatherCatV1.01B143,2013-05-24 19:05:00,
2013-05-24 15:10:00,58.8,58.5,29.71,SW,225,0.0,1.0,99,0.00,,,0.00,WeatherCatV1.01B143,2013-05-24 19:10:00,
2013-05-24 15:15:00,58.8,58.5,29.71,SW,225,0.0,1.0,99,0.00,,,0.00,WeatherCatV1.01B143,2013-05-24 19:15:00,
2013-05-24 15:20:00,58.8,58.5,29.71,SW,225,0.0,1.0,99,0.00,,,0.00,WeatherCatV1.01B143,2013-05-24 19:20:00,
2013-05-24 15:25:00,58.8,58.5,29.71,SW,225,0.0,1.0,99,0.00,,,0.00,WeatherCatV1.01B143,2013-05-24 19:25:00,
2013-05-24 15:30:00,58.8,58.5,29.71,SW,225,0.0,1.0,99,0.00,,,0.00,WeatherCatV1.01B143,2013-05-24 19:30:00,
2013-05-24 15:35:00,58.6,58.3,29.71,SW,225,0.0,2.0,99,0.00,,,0.00,WeatherCatV1.01B143,2013-05-24 19:35:00,
2013-05-24 15:40:00,58.6,58.3,29.71,SW,225,0.0,2.0,99,0.00,,,0.00,WeatherCatV1.01B143,2013-05-24 19:40:00,
2013-05-24 15:45:00,58.6,58.3,29.71,SW,225,0.0,2.0,99,0.00,,,0.00,WeatherCatV1.01B143,2013-05-24 19:45:00,
2013-05-24 15:50:00,58.6,58.3,29.71,SW,225,0.0,2.0,99,0.00,,,0.00,WeatherCatV1.01B143,2013-05-24 19:50:00,
2013-05-24 15:55:00,58.6,58.3,29.71,SW,225,0.0,2.0,99,0.00,,,0.00,WeatherCatV1.01B143,2013-05-24 19:55:00,
2013-05-24 16:00:00,58.6,58.3,29.71,SW,225,0.0,2.0,99,0.00,,,0.00,WeatherCatV1.01B143,2013-05-24 20:00:00,
2013-05-24 16:05:00,59.2,58.9,29.71,SSW,202,0.0,2.0,99,0.00,,,0.00,WeatherCatV1.01B143,2013-05-24 20:05:00,
2013-05-24 16:10:00,59.2,58.9,29.71,SSW,202,0.0,2.0,99,0.00,,,0.00,WeatherCatV1.01B143,2013-05-24 20:10:00,
2013-05-24 16:15:00,59.2,58.9,29.71,SSW,202,0.0,2.0,99,0.00,,,0.00,WeatherCatV1.01B143,2013-05-24 20:15:00,
2013-05-24 16:20:00,59.2,58.9,29.71,SSW,202,0.0,2.0,99,0.00,,,0.00,WeatherCatV1.01B143,2013-05-24 20:20:00,
2013-05-24 16:25:00,59.2,58.9,29.71,SSW,202,0.0,2.0,99,0.00,,,0.00,WeatherCatV1.01B143,2013-05-24 20:25:00,
2013-05-24 16:30:00,59.2,58.9,29.71,SSW,202,0.0,2.0,99,0.00,,,0.00,WeatherCatV1.01B143,2013-05-24 20:30:00,
2013-05-24 16:35:00,59.0,58.7,29.71,West,270,2.0,10.0,99,0.00,,,0.00,WeatherCatV1.01B143,2013-05-24 20:35:00,
2013-05-24 16:40:00,59.0,58.7,29.71,West,270,2.0,10.0,99,0.00,,,0.00,WeatherCatV1.01B143,2013-05-24 20:40:00,
2013-05-24 16:45:00,59.0,58.7,29.71,West,270,2.0,10.0,99,0.00,,,0.00,WeatherCatV1.01B143,2013-05-24 20:45:00,
2013-05-24 16:50:00,59.0,58.7,29.71,West,270,2.0,10.0,99,0.00,,,0.00,WeatherCatV1.01B143,2013-05-24 20:50:00,
2013-05-24 16:55:00,59.0,58.7,29.71,West,270,2.0,10.0,99,0.00,,,0.00,WeatherCatV1.01B143,2013-05-24 20:55:00,
2013-05-24 17:00:00,59.0,58.7,29.71,West,270,2.0,10.0,99,0.00,,,0.00,WeatherCatV1.01B143,2013-05-24 21:00:00,
2013-05-24 17:05:00,61.8,61.8,29.71,WNW,292,3.0,8.0,100,0.00,,,0.00,WeatherCatV1.01B143,2013-05-24 21:05:00,
2013-05-24 17:10:00,61.8,61.8,29.71,WNW,292,3.0,8.0,100,0.00,,,0.00,WeatherCatV1.01B143,2013-05-24 21:10:00,
2013-05-24 17:15:00,61.8,61.8,29.71,WNW,292,3.0,8.0,100,0.00,,,0.00,WeatherCatV1.01B143,2013-05-24 21:15:00,
2013-05-24 17:20:00,61.8,61.8,29.71,WNW,292,3.0,8.0,100,0.00,,,0.00,WeatherCatV1.01B143,2013-05-24 21:20:00,
2013-05-24 17:25:00,61.8,61.8,29.71,WNW,292,3.0,8.0,100,0.00,,,0.00,WeatherCatV1.01B143,2013-05-24 21:25:00,
2013-05-24 17:30:00,61.8,61.8,29.71,WNW,292,3.0,8.0,100,0.00,,,0.00,WeatherCatV1.01B143,2013-05-24 21:30:00,
2013-05-24 17:35:00,61.6,61.6,29.71,West,270,4.0,12.0,100,0.00,,,0.00,WeatherCatV1.01B143,2013-05-24 21:35:00,
2013-05-24 17:40:00,61.6,61.6,29.71,West,270,4.0,12.0,100,0.00,,,0.00,WeatherCatV1.01B143,2013-05-24 21:40:00,
2013-05-24 17:45:00,61.6,61.6,29.71,West,270,4.0,12.0,100,0.00,,,0.00,WeatherCatV1.01B143,2013-05-24 21:45:00,
2013-05-24 17:50:00,61.6,61.6,29.71,West,270,4.0,12.0,100,0.00,,,0.00,WeatherCatV1.01B143,2013-05-24 21:50:00,
2013-05-24 17:55:00,61.6,61.6,29.71,West,270,4.0,12.0,100,0.00,,,0.00,WeatherCatV1.01B143,2013-05-24 21:55:00,
2013-05-24 18:00:00,61.6,61.6,29.71,West,270,4.0,12.0,100,0.00,,,0.00,WeatherCatV1.01B143,2013-05-24 22:00:00,
2013-05-24 18:05:00,61.0,60.7,29.71,NW,315,8.0,14.0,99,0.00,,,0.00,WeatherCatV1.01B143,2013-05-24 22:05:00,
2013-05-24 18:10:00,61.0,60.7,29.71,NW,315,8.0,14.0,99,0.00,,,0.00,WeatherCatV1.01B143,2013-05-24 22:10:00,
2013-05-24 18:15:00,61.0,60.7,29.71,NW,315,8.0,14.0,99,0.00,,,0.00,WeatherCatV1.01B143,2013-05-24 22:15:00,
2013-05-24 18:20:00,61.0,60.7,29.71,NW,315,8.0,14.0,99,0.00,,,0.00,WeatherCatV1.01B143,2013-05-24 22:20:00,
2013-05-24 18:25:00,61.0,60.7,29.71,NW,315,8.0,14.0,99,0.00,,,0.00,WeatherCatV1.01B143,2013-05-24 22:25:00,
2013-05-24 18:30:00,61.0,60.7,29.71,NW,315,8.0,14.0,99,0.00,,,0.00,WeatherCatV1.01B143,2013-05-24 22:30:00,
2013-05-24 18:35:00,60.8,60.5,29.72,NW,315,5.0,13.0,99,0.00,,,0.00,WeatherCatV1.01B143,2013-05-24 22:35:00,
2013-05-24 18:40:00,60.8,60.5,29.72,NW,315,5.0,13.0,99,0.00,,,0.00,WeatherCatV1.01B143,2013-05-24 22:40:00,
2013-05-24 18:45:00,60.8,60.5,29.72,NW,315,5.0,13.0,99,0.00,,,0.00,WeatherCatV1.01B143,2013-05-24 22:45:00,
2013-05-24 18:50:00,60.8,60.5,29.72,NW,315,5.0,13.0,99,0.00,,,0.00,WeatherCatV1.01B143,2013-05-24 22:50:00,
2013-05-24 18:55:00,60.8,60.5,29.72,NW,315,5.0,13.0,99,0.00,,,0.00,WeatherCatV1.01B143,2013-05-24 22:55:00,
2013-05-24 19:00:00,60.8,60.5,29.72,NW,315,5.0,13.0,99,0.00,,,0.00,WeatherCatV1.01B143,2013-05-24 23:00:00,
2013-05-24 19:05:00,60.8,60.2,29.73,North,0,6.0,17.0,98,0.00,,,0.00,WeatherCatV1.01B143,2013-05-24 23:05:00,
2013-05-24 19:10:00,60.8,60.2,29.73,North,0,6.0,17.0,98,0.00,,,0.00,WeatherCatV1.01B143,2013-05-24 23:10:00,
2013-05-24 19:15:00,60.8,60.2,29.73,North,0,6.0,17.0,98,0.00,,,0.00,WeatherCatV1.01B143,2013-05-24 23:15:00,
2013-05-24 19:20:00,60.8,60.2,29.73,North,0,6.0,17.0,98,0.00,,,0.00,WeatherCatV1.01B143,2013-05-24 23:20:00,
2013-05-24 19:25:00,60.8,60.2,29.73,North,0,6.0,17.0,98,0.00,,,0.00,WeatherCatV1.01B143,2013-05-24 23:25:00,
2013-05-24 19:30:00,60.8,60.2,29.73,North,0,6.0,17.0,98,0.00,,,0.00,WeatherCatV1.01B143,2013-05-24 23:30:00,
2013-05-24 19:35:00,60.3,57.7,29.73,North,0,8.0,22.0,91,0.00,,,0.00,WeatherCatV1.01B143,2013-05-24 23:35:00,
2013-05-24 19:40:00,60.3,57.7,29.73,North,0,8.0,22.0,91,0.00,,,0.00,WeatherCatV1.01B143,2013-05-24 23:40:00,
2013-05-24 19:45:00,60.3,57.7,29.73,North,0,8.0,22.0,91,0.00,,,0.00,WeatherCatV1.01B143,2013-05-24 23:45:00,
2013-05-24 19:50:00,60.3,57.7,29.73,North,0,8.0,22.0,91,0.00,,,0.00,WeatherCatV1.01B143,2013-05-24 23:50:00,
2013-05-24 19:55:00,60.3,57.7,29.73,North,0,8.0,22.0,91,0.00,,,0.00,WeatherCatV1.01B143,2013-05-24 23:55:00,
2013-05-24 20:00:00,60.3,57.7,29.73,North,0,8.0,22.0,91,0.00,,,0.00,WeatherCatV1.01B143,2013-05-25 00:00:00,
2013-05-24 20:05:00,59.5,55.9,29.74,North,0,8.0,19.0,88,0.00,,,0.00,WeatherCatV1.01B143,2013-05-25 00:05:00,
2013-05-24 20:10:00,59.5,55.9,29.74,North,0,8.0,19.0,88,0.00,,,0.00,WeatherCatV1.01B143,2013-05-25 00:10:00,
2013-05-24 20:15:00,59.5,55.9,29.74,North,0,8.0,19.0,88,0.00,,,0.00,WeatherCatV1.01B143,2013-05-25 00:15:00,
2013-05-24 20:20:00,59.5,55.9,29.74,North,0,8.0,19.0,88,0.00,,,0.00,WeatherCatV1.01B143,2013-05-25 00:20:00,
2013-05-24 20:25:00,59.5,55.9,29.74,North,0,8.0,19.0,88,0.00,,,0.00,WeatherCatV1.01B143,2013-05-25 00:25:00,
2013-05-24 20:30:00,57.2,54.6,29.74,North,0,9.0,19.0,91,0.00,,,0.00,WeatherCatV1.01B143,2013-05-25 00:30:00,
2013-05-24 20:35:00,57.2,54.6,29.74,North,0,9.0,19.0,91,0.00,,,0.00,WeatherCatV1.01B143,2013-05-25 00:35:00,
2013-05-24 20:40:00,57.2,54.6,29.74,North,0,9.0,19.0,91,0.00,,,0.00,WeatherCatV1.01B143,2013-05-25 00:40:00,
2013-05-24 20:45:00,57.2,54.6,29.74,North,0,9.0,19.0,91,0.00,,,0.00,WeatherCatV1.01B143,2013-05-25 00:45:00,
2013-05-24 20:50:00,57.2,54.6,29.74,North,0,9.0,19.0,91,0.00,,,0.00,WeatherCatV1.01B143,2013-05-25 00:50:00,
2013-05-24 20:55:00,57.2,54.6,29.74,North,0,9.0,19.0,91,0.00,,,0.00,WeatherCatV1.01B143,2013-05-25 00:55:00,
2013-05-24 21:00:00,55.7,53.1,29.76,North,0,9.0,22.0,91,0.00,,,0.00,WeatherCatV1.01B143,2013-05-25 01:00:00,
2013-05-24 21:05:00,55.7,53.1,29.76,North,0,9.0,22.0,91,0.00,,,0.00,WeatherCatV1.01B143,2013-05-25 01:05:00,
2013-05-24 21:10:00,55.7,53.1,29.76,North,0,9.0,22.0,91,0.00,,,0.00,WeatherCatV1.01B143,2013-05-25 01:10:00,
2013-05-24 21:15:00,55.7,53.1,29.76,North,0,9.0,22.0,91,0.00,,,0.00,WeatherCatV1.01B143,2013-05-25 01:15:00,
2013-05-24 21:20:00,55.7,53.1,29.76,North,0,9.0,22.0,91,0.00,,,0.00,WeatherCatV1.01B143,2013-05-25 01:20:00,
2013-05-24 21:25:00,55.7,53.1,29.76,North,0,9.0,22.0,91,0.00,,,0.00,WeatherCatV1.01B143,2013-05-25 01:25:00,
2013-05-24 21:30:00,55.7,53.1,29.76,North,0,9.0,22.0,91,0.00,,,0.00,WeatherCatV1.01B143,2013-05-25 01:30:00,
2013-05-24 21:35:00,54.1,52.1,29.77,NW,315,6.0,15.0,93,0.00,,,0.00,WeatherCatV1.01B143,2013-05-25 01:35:00,
2013-05-24 21:40:00,54.1,52.1,29.77,NW,315,6.0,15.0,93,0.00,,,0.00,WeatherCatV1.01B143,2013-05-25 01:40:00,
2013-05-24 21:45:00,54.1,52.1,29.77,NW,315,6.0,15.0,93,0.00,,,0.00,WeatherCatV1.01B143,2013-05-25 01:45:00,
2013-05-24 21:50:00,54.1,52.1,29.77,NW,315,6.0,15.0,93,0.00,,,0.00,WeatherCatV1.01B143,2013-05-25 01:50:00,
2013-05-24 21:55:00,54.1,52.1,29.77,NW,315,6.0,15.0,93,0.00,,,0.00,WeatherCatV1.01B143,2013-05-25 01:55:00,
2013-05-24 22:00:00,54.1,52.1,29.77,NW,315,6.0,15.0,93,0.00,,,0.00,WeatherCatV1.01B143,2013-05-25 02:00:00,
2013-05-24 22:05:00,52.8,51.1,29.79,North,0,6.0,17.0,94,0.00,,,0.00,WeatherCatV1.01B143,2013-05-25 02:05:00,
2013-05-24 22:10:00,52.8,51.1,29.79,North,0,6.0,17.0,94,0.00,,,0.00,WeatherCatV1.01B143,2013-05-25 02:10:00,
2013-05-24 22:15:00,52.8,51.1,29.79,North,0,6.0,17.0,94,0.00,,,0.00,WeatherCatV1.01B143,2013-05-25 02:15:00,
2013-05-24 22:20:00,52.8,51.1,29.79,North,0,6.0,17.0,94,0.00,,,0.00,WeatherCatV1.01B143,2013-05-25 02:20:00,
2013-05-24 22:25:00,52.8,51.1,29.79,North,0,6.0,17.0,94,0.00,,,0.00,WeatherCatV1.01B143,2013-05-25 02:25:00,
2013-05-24 22:30:00,52.8,51.1,29.79,North,0,6.0,17.0,94,0.00,,,0.00,WeatherCatV1.01B143,2013-05-25 02:30:00,
2013-05-24 22:35:00,52.0,50.0,29.78,NW,315,9.0,22.0,93,0.00,,,0.00,WeatherCatV1.01B143,2013-05-25 02:35:00,
2013-05-24 22:40:00,52.0,50.0,29.78,NW,315,9.0,22.0,93,0.00,,,0.00,WeatherCatV1.01B143,2013-05-25 02:40:00,
2013-05-24 22:45:00,52.0,50.0,29.78,NW,315,9.0,22.0,93,0.00,,,0.00,WeatherCatV1.01B143,2013-05-25 02:45:00,
2013-05-24 22:50:00,52.0,50.0,29.78,NW,315,9.0,22.0,93,0.00,,,0.00,WeatherCatV1.01B143,2013-05-25 02:50:00,
2013-05-24 22:55:00,52.0,50.0,29.78,NW,315,9.0,22.0,93,0.00,,,0.00,WeatherCatV1.01B143,2013-05-25 02:55:00,
2013-05-24 23:00:00,52.0,50.0,29.78,NW,315,9.0,22.0,93,0.00,,,0.00,WeatherCatV1.01B143,2013-05-25 03:00:00,
2013-05-24 23:05:00,50.8,49.1,29.80,NW,315,8.0,16.0,94,0.00,,,0.00,WeatherCatV1.01B143,2013-05-25 03:05:00,
2013-05-24 23:10:00,50.8,49.1,29.80,NW,315,8.0,16.0,94,0.00,,,0.00,WeatherCatV1.01B143,2013-05-25 03:10:00,
2013-05-24 23:15:00,50.8,49.1,29.80,NW,315,8.0,16.0,94,0.00,,,0.00,WeatherCatV1.01B143,2013-05-25 03:15:00,
2013-05-24 23:20:00,50.8,49.1,29.80,NW,315,8.0,16.0,94,0.00,,,0.00,WeatherCatV1.01B143,2013-05-25 03:20:00,
2013-05-24 23:25:00,50.8,49.1,29.80,NW,315,8.0,16.0,94,0.00,,,0.00,WeatherCatV1.01B143,2013-05-25 03:25:00,
2013-05-24 23:30:00,50.8,49.1,29.80,NW,315,8.0,16.0,94,0.00,,,0.00,WeatherCatV1.01B143,2013-05-25 03:30:00,
2013-05-24 23:35:00,49.9,48.2,29.81,NW,315,9.0,18.0,94,0.00,,,0.00,WeatherCatV1.01B143,2013-05-25 03:35:00,
2013-05-24 23:40:00,49.9,48.2,29.81,NW,315,9.0,18.0,94,0.00,,,0.00,WeatherCatV1.01B143,2013-05-25 03:40:00,
2013-05-24 23:45:00,49.9,48.2,29.81,NW,315,9.0,18.0,94,0.00,,,0.00,WeatherCatV1.01B143,2013-05-25 03:45:00,
2013-05-24 23:50:00,49.9,48.2,29.81,NW,315,9.0,18.0,94,0.00,,,0.00,WeatherCatV1.01B143,2013-05-25 03:50:00,
2013-05-24 23:55:00,49.9,48.2,29.81,NW,315,9.0,18.0,94,0.00,,,0.00,WeatherCatV1.01B143,2013-05-25 03:55:00,